TimeWET,TemperatureF,Dew PointF,Humidity,Sea Level PressureIn,VisibilityMPH,Wind Direction,Wind SpeedMPH,Gust SpeedMPH,PrecipitationIn,Events,Conditions,WindDirDegrees,DateUTC
6:00 AM,68,62,75,30.02,6,West,9.2,,,,Partly Cloudy,260,2012-10-12 06:00:00
6:00 AM,68.0,62.6,83,30.01,6.2,West,8.1,-,N/A,,Scattered Clouds,260,2012-10-12 06:00:00
7:00 AM,68.0,62.6,83,30.01,6.2,WSW,15.0,-,N/A,,Scattered Clouds,250,2012-10-12 07:00:00
8:00 AM,71.6,60.8,69,30.04,6.2,West,16.1,-,N/A,,Mostly Cloudy,270,2012-10-12 08:00:00
9:00 AM,72,62,63,30.05,6,West,16.1,,,,Mostly Cloudy,280,2012-10-12 09:00:00
9:00 AM,71.6,62.6,73,30.04,6.2,West,16.1,-,N/A,,Mostly Cloudy,280,2012-10-12 09:00:00
10:00 AM,77.0,60.8,57,30.04,6.2,West,18.4,-,N/A,,Mostly Cloudy,270,2012-10-12 10:00:00
1:00 PM,78.8,57.2,47,30.01,6.2,WNW,21.9,-,N/A,,Mostly Cloudy,290,2012-10-12 13:00:00
2:00 PM,78.8,57.2,47,29.98,6.2,West,20.7,-,N/A,,Partly Cloudy,280,2012-10-12 14:00:00
3:00 PM,79,58,38,30.00,6,WNW,18.4,,,,Scattered Clouds,290,2012-10-12 15:00:00
3:00 PM,78.8,57.2,47,29.98,6.2,WNW,18.4,-,N/A,,Partly Cloudy,290,2012-10-12 15:00:00
5:00 PM,75.2,57.2,53,30.01,6.2,WNW,9.2,-,N/A,,Partly Cloudy,300,2012-10-12 17:00:00
6:00 PM,72,55,45,30.03,6,NW,5.8,,,,Scattered Clouds,310,2012-10-12 18:00:00
6:00 PM,71.6,55.4,57,30.01,6.2,Variable,5.8,-,N/A,,Partly Cloudy,0,2012-10-12 18:00:00
7:00 PM,69.8,57.2,64,30.04,6.2,West,13.8,-,N/A,,Partly Cloudy,280,2012-10-12 19:00:00
8:00 PM,68.0,57.2,68,30.04,6.2,West,18.4,-,N/A,,Partly Cloudy,260,2012-10-12 20:00:00
9:00 PM,68,56,58,30.06,6,West,13.8,,,,Scattered Clouds,260,2012-10-12 21:00:00
9:00 PM,68.0,57.2,68,30.04,6.2,West,13.8,-,N/A,,Partly Cloudy,260,2012-10-12 21:00:00
10:00 PM,68.0,55.4,64,30.06,6.2,WSW,13.8,-,N/A,,Unknown,250,2012-10-12 22:00:00
11:00 PM,68.0,55.4,64,30.04,6.2,West,10.4,-,N/A,,Unknown,260,2012-10-12 23:00:00